TimeEST,TemperatureF,Dew PointF,Humidity,Sea Level PressureIn,VisibilityMPH,Wind Direction,Wind SpeedMPH,Gust SpeedMPH,PrecipitationIn,Events,Conditions,WindDirDegrees,DateUTC
12:53 AM,28.9,19.9,69,30.09,10.0,Calm,Calm,-,N/A,,Clear,0,2013-03-05 05:53:00
2:53 AM,30.0,24.1,79,30.08,10.0,Calm,Calm,-,N/A,,Mostly Cloudy,0,2013-03-05 07:53:00
3:53 AM,34.0,25.0,70,30.08,10.0,Calm,Calm,-,N/A,,Overcast,0,2013-03-05 08:53:00
4:53 AM,34.0,28.0,79,30.09,10.0,Calm,Calm,-,N/A,,Mostly Cloudy,0,2013-03-05 09:53:00
5:53 AM,35.1,28.0,76,30.10,10.0,Calm,Calm,-,N/A,,Overcast,0,2013-03-05 10:53:00
8:53 AM,45.0,23.0,42,30.08,10.0,East,5.8,-,N/A,,Partly Cloudy,90,2013-03-05 13:53:00
9:53 AM,51.1,23.0,33,30.06,10.0,Variable,4.6,-,N/A,,Clear,0,2013-03-05 14:53:00
10:53 AM,53.1,24.1,32,30.03,10.0,SSE,5.8,-,N/A,,Scattered Clouds,160,2013-03-05 15:53:00
11:53 AM,55.0,28.0,35,30.01,10.0,South,6.9,-,N/A,,Overcast,190,2013-03-05 16:53:00
12:53 PM,55.9,30.0,37,29.98,10.0,South,4.6,-,N/A,,Overcast,190,2013-03-05 17:53:00
1:53 PM,53.1,36.0,52,29.97,10.0,WSW,4.6,-,0.00,Rain,Light Rain,250,2013-03-05 18:53:00
2:53 PM,48.9,45.0,86,29.94,6.0,Calm,Calm,-,0.02,Rain,Light Rain,0,2013-03-05 19:53:00
3:53 PM,48.0,43.0,83,29.93,4.0,Calm,Calm,-,0.02,Rain,Light Rain,0,2013-03-05 20:53:00
4:53 PM,46.9,44.1,90,29.90,3.0,ENE,4.6,-,0.02,Rain,Light Rain,60,2013-03-05 21:53:00
5:36 PM,46.4,42.8,87,29.88,2.5,NNE,6.9,-,0.02,Rain,Light Rain,30,2013-03-05 22:36:00
5:46 PM,46.4,42.8,87,29.88,3.0,NE,4.6,-,0.02,Rain,Light Rain,50,2013-03-05 22:46:00
5:53 PM,46.0,43.0,89,29.88,2.5,NNE,3.5,-,0.03,Rain,Light Rain,30,2013-03-05 22:53:00
6:10 PM,46.4,42.8,87,29.87,4.0,NNE,4.6,-,0.00,,Overcast,30,2013-03-05 23:10:00
6:53 PM,45.0,41.0,86,29.86,7.0,NE,5.8,-,0.00,,Overcast,40,2013-03-05 23:53:00
7:53 PM,44.1,39.9,85,29.81,10.0,ENE,5.8,-,0.00,,Overcast,60,2013-03-06 00:53:00
8:53 PM,43.0,37.0,80,29.75,10.0,ENE,5.8,-,N/A,,Mostly Cloudy,70,2013-03-06 01:53:00
9:53 PM,43.0,37.0,80,29.71,9.0,ENE,6.9,-,0.01,Rain,Light Rain,70,2013-03-06 02:53:00
10:53 PM,41.0,37.9,89,29.66,4.0,Variable,3.5,-,0.10,Rain,Rain,0,2013-03-06 03:53:00
11:43 PM,42.8,39.2,87,29.63,5.0,Variable,6.9,-,0.12,Rain,Light Rain,0,2013-03-06 04:43:00
11:53 PM,42.1,39.9,92,29.61,8.0,East,5.8,-,0.12,Rain,Light Rain,100,2013-03-06 04:53:00